Location: Igri�s
(42.2144°N, 0.4320°W)
Time: 09:52:17
(UTC+00:00)

ERS-1 Rocket - Pass Details

Date: 13 August 2020
Orbit: 753 x 757 km, 98.5° (Epoch: 18 September)

Event Time Altitude Azimuth Distance (km) Brightness Sun altitude
Exits shadow 21:36:11 66° 144° (SE) 823 2.8 -23.8°
Maximum altitude 21:36:51 81° 76° (ENE) 769 2.8 -23.8°
Drops below altitude 10° 21:41:54 10° 349° (NNW) 2,288 6.3 -24.4°
Sets 21:44:12 0° 348° (NNW) 3,217 7.2 -24.7°
